Regional Weather Roundup
Issued by NWS

Home | Current Version | Previous Version | Graphics & Text | Print | Product List | Glossary On
Versions: 1 2 3 4 5 6 7 8 9 10 11 12 13 14 15 16 17 18 19 20 21 22 23 24 25 26 27 28 29 30 31 32 33 34 35 36 37 38 39 40 41 42 43 44 45 46 47 48 49 50
000
ASUS45 KTFX 241110
RWRMT
MONTANA REGIONAL WEATHER ROUNDUP
NATIONAL WEATHER SERVICE GREAT FALLS MT
400 AM MST FRI FEB 24 2017

NOTE: "FAIR" INDICATES FEW OR NO CLOUDS BELOW 12000 FEET WITH NO
SIGNIFICANT WEATHER AND/OR OBSTRUCTIONS TO VISIBILITY.

MTZ001>007-043-241200-
WEST OF THE DIVIDE

CITY           SKY/WX    TMP DP  RH WIND       PRES   REMARKS
KALISPELL      CLEAR     12   9  87 CALM      30.01S
MISSOULA       CLOUDY    27  18  69 NW12      30.01R WCI  17
BUTTE          CLOUDY    17  13  84 CALM      29.86S
MULLAN PASS    CLOUDY    14  12  92 NW3       29.88S
ANACONDA         N/A     18  10  73 SW3       29.90R
DEER LODGE       N/A     21  16  79 CALM      29.94R
EUREKA           N/A      9   7  92 CALM      30.05S
HAMILTON         N/A     28  19  69 NW5       29.96
LIBBY            N/A     10   9  92 CALM      30.05R
PLAINS           N/A     13   6  73 CALM      30.06S
RONAN            N/A     22  19  88 CALM      30.03R
$$

MTZ008-052>055-241200-
SOUTHWEST MONTANA

CITY           SKY/WX    TMP DP  RH WIND       PRES   REMARKS
BOZEMAN        CLOUDY    20  18  92 W5        29.90R
DILLON         CLOUDY    20  15  81 NE9       29.85R WCI   9
W YELLOWSTONE  CLOUDY    12  10  92 CALM      29.79S
ENNIS          CLOUDY    18  16  93 N7        29.89S FOG     WCI   8
THREE FORKS      N/A     20  -9  27 W1        29.91R
TWIN BRIDGES     N/A     21  12  68 N9        29.87S WCI  11
$$

MTZ009-010-012-014-046-048-049-054-241200-
EAST SLOPES AND CENTRAL MONTANA

CITY           SKY/WX    TMP DP  RH WIND       PRES   REMARKS
CUT BANK       FOG       16  16 100 SW6       29.94F VSB 1/2 WCI   7
GREAT FALLS    CLOUDY    24  21  88 E3        29.95S
MALMSTROM AFB  FLURRIES  22  23 100 MISG      29.97S
HELENA         CLOUDY    27  23  85 CALM      29.93R
AUGUSTA        CLOUDY    19  17  92 CALM      29.91S
BOWMANS CRNR   CLOUDY    20  19  94 NW3       29.90S
CHOTEAU          N/A     18  16  93 S5        29.96R
CONRAD           N/A     19  19 100 NE3       29.98R
POWER          MOCLDY    22  20  93 N5        29.94S
RAYNESFORD       N/A     17  14  87 CALM      29.95R
ULM            CLOUDY    24  24  99 MISG      29.95S
$$

MTZ011-013-016-021-045-047-050-051-241200-
NORTH CENTRAL MONTANA

CITY           SKY/WX    TMP DP  RH WIND       PRES   REMARKS
HAVRE          CLOUDY    18  16  92 S3        30.01F
LEWISTOWN      CLOUDY    19  16  88 SW6       29.93S WCI  11
N BAR RANCH    LGT SNOW  21  19  93 E8        29.95S WCI  12
CHINOOK          N/A    N/A N/A N/A E7        30.03S
DENTON         MOCLDY    18  17  93 CALM      29.94R
FORT BENTON      N/A     25  21  86 MISG      30.00F
GEYSER         CLOUDY    18  14  84 SW9       29.94R WCI   7
GRASS RANGE    FLURRIES  23  22  95 E8        29.93S WCI  14
JUDITH GAP     FLURRIES  18  16  91 S8        29.91R WCI   8
ROY            LGT SNOW  24  24  99 MISG      29.97S FOG
STANFORD         N/A     14  11  87 W5        29.92S
WINIFRED       MOCLDY    20  19  98 E7        29.95S WCI  11
$$

MTZ017>020-022>027-061-062-241200-
NORTHEAST MONTANA

CITY           SKY/WX    TMP DP  RH WIND       PRES   REMARKS
GLASGOW        CLOUDY    24  19  81 SE10      30.08S WCI  14
JORDAN           N/A     25  22  88 E6        30.06R WCI  18
SIDNEY         MOCLDY    18  15  88 CALM      30.13F
WOLF POINT     CLOUDY    26  18  71 E6        30.12S WCI  19
PLENTYWOOD       N/A     19  16  86 CALM      30.11S
SCOBEY           N/A     21  11  65 CALM      30.07S
$$

MTZ028>42-056>058-241200-
SOUTHCENTRAL AND SOUTHEAST MONTANA

CITY           SKY/WX    TMP DP  RH WIND       PRES   REMARKS
BAKER          CLOUDY    15   9  76 E9        30.06R WCI   3
BILLINGS       LGT SNOW  25  24  96 NE7       29.94S FOG     WCI  17
LIVINGSTON     CLOUDY    18  15  88 E3        29.89R
MILES CITY     CLOUDY    28  21  75 E6        30.05R WCI  22
BIG TIMBER     CLOUDY    19  19 100 N7        29.93S FOG     WCI  10
EKALAKA          N/A     16  10  77 SE7       29.97F WCI   6
FORSYTH          N/A     27  27 100 NE6       30.03R WCI  20
HARLOWTON      FLURRIES  22  20  94 E7        29.92S WCI  13
LAUREL           N/A     24  16  71 N2        29.91F
$$

REGIONAL REPORTS...DAKOTAS

CITY           SKY/WX    TMP DP  RH WIND       PRES   REMARKS
WILLISTON      CLOUDY    12   9  87 CALM      30.14S
MINOT          CLEAR     20  15  81 NW7       30.12S WCI  11
DICKINSON      CLEAR      6   3  87 CALM      30.07S
BEACH            N/A    N/A N/A N/A MISG        N/A
CROSBY         CLOUDY    25  19  80 CALM      30.15S
TIOGA          CLOUDY    19  19 100 SW3       30.13S
WATFORD CITY   CLOUDY    10   9  92 CALM      30.13F
BISMARCK       PTCLDY    17  11  77 NW9       30.12F WCI   6
GRAND FORKS    CLOUDY    18  10  71 N7        30.13S WCI   9
FARGO          CLEAR     19  11  70 N12       30.11R WCI   7
BUFFALO SD       N/A     14  10  84 NE6       29.98S WCI   5
RAPID CITY     CLOUDY    22  18  85 N13       30.00R WCI  10
$$

REGIONAL REPORTS...WYOMING/IDAHO/WASHINGTON

CITY           SKY/WX    TMP DP  RH WIND       PRES   REMARKS
GILLETTE       CLOUDY    22  19  89 E8        29.92S FOG     WCI  12
SHERIDAN       CLOUDY    22  17  81 SE16      29.92F WCI   8
BUFFALO WY     LGT SNOW  20  15  81 S7        29.89F WCI  11
CODY           CLOUDY    17  13  84 S3        29.87F
YELLOWSTONE LA   N/A      2   0  91 CALM      29.76S
IDAHO FALLS    LGT SNOW  21  20  96 S18G25    29.86R FOG     WCI   6
SALMON         CLOUDY    27  18  69 CALM      29.88S
BOISE            N/A     28  20  71 W9          N/A  WCI  19
SPOKANE        CLEAR     21  18  88 SE6       30.06F WCI  13
$$

REGIONAL REPORTS...ALBERTA

CITY           SKY/WX    TMP DP  RH WIND       PRES   REMARKS
EDMONTON       CLOUDY    19  18  93 NW5       30.07R
CALGARY        MOCLDY    16  14  93 N5        29.97R FOG
LETHBRIDGE     CLEAR     12  10  92 SW6       29.98S WCI   3
MEDICINE HAT   CLOUDY    23  21  93 E5        30.03R
WATERTON GATE    N/A     14   9  79 S9          N/A  WCI   2
CARDSTON         N/A      5   0  78 SE1         N/A
MILK RIVER       N/A     18  16  93 W5          N/A
$$

REGIONAL REPORTS...SASKATCHEWAN

CITY           SKY/WX    TMP DP  RH WIND       PRES   REMARKS
SWIFT CURRENT  FLURRIES  21  19  93 S9        30.03S WCI  11
REGINA         CLEAR     18  16  93 W7        30.10R WCI   8
SASKATOON      LGT SNOW  19  14  79 E5        30.12S
CYPRESS HILLS    N/A     19  18  93 SW5         N/A
VAL MARIE        N/A     23  18  80 SE7         N/A  WCI  15
ROCKGLEN         N/A     19  16  86 S6          N/A  WCI  11
ASSINIBOIA       N/A     19  18  93 W2          N/A
$$



USA.gov is the U.S. government's official web portal to all federal, state and local government web resources and services.